"2010-09-28 00:00:00",199021,2.53,58.49,5.207,0.113,20.22,109.1796,22.79,23.67,18.72,0,111.1,13.12,23.62,20.5
"2010-09-28 00:00:30",199022,2.507,58.69,3.795,0.125,20.24,109.1793,22.79,23.68,18.66,0,111.1,13.13,23.62,20.7
"2010-09-28 00:01:00",199023,2.422,55.11,4.957,0.181,20.21,109.1757,22.78,23.67,18.63,0,111.1,13.13,23.61,17.1
"2010-09-28 00:01:30",199024,2.593,51.58,2.051,0.079,20.19,109.1731,22.77,23.67,18.59,0,111.1,13.13,23.60,13.6
"2010-09-28 00:02:00",199025,2.367,55.95,3.138,0.119,20.21,109.1709,22.76,23.66,18.57,0,111.1,13.13,23.60,18.0
"2010-09-28 00:02:30",199026,2.361,60.91,4.263,0.212,20.22,109.1667,22.75,23.65,18.6,0,111.1,13.13,23.59,22.9
"2010-09-28 00:03:00",199027,2.752,63.82,5.052,0.159,20.28,109.1658,22.75,23.65,18.6,0,111.2,13.13,23.58,25.8
"2010-09-28 00:03:30",199028,2.676,61.75,4.147,0.131,20.28,109.1675,22.76,23.66,18.63,0,111.2,13.13,23.59,23.8
"2010-09-28 00:04:00",199029,1.987,65.27,3.272,0.184,20.31,109.1709,22.76,23.66,18.58,0,111.2,13.13,23.60,27.3
"2010-09-28 00:04:30",199030,2.376,72.34,4.129,0.357,20.29,109.1726,22.77,23.67,18.44,0,111.2,13.13,23.60,34.3
"2010-09-28 00:05:00",199031,2.641,66.04,3.11,0.102,20.27,109.1728,22.77,23.67,18.44,0,111.2,13.13,23.60,28.0
"2010-09-28 00:05:30",199032,2.755,74.04,2.28,0.142,20.28,109.1726,22.77,23.65,18.43,0,111.2,13.13,23.60,36.0
"2010-09-28 00:06:00",199033,2.423,75.32,2.063,0.148,20.29,109.1709,22.76,23.66,18.34,0,111.2,13.13,23.60,37.3
"2010-09-28 00:06:30",199034,2.353,65.2,7.234,0.259,20.3,109.1689,22.76,23.67,18.48,0,111.2,13.13,23.59,27.2
"2010-09-28 00:07:00",199035,2.096,64.15,7.224,0.181,20.27,109.1695,22.76,23.66,18.53,0,111.2,13.13,23.59,26.2
"2010-09-28 00:07:30",199036,2.325,78.5,3.535,0.111,20.38,109.1695,22.76,23.66,18.46,0,111.2,13.12,23.59,40.5
"2010-09-28 00:08:00",199037,2.43,81,3.123,0.123,20.37,109.1709,22.76,23.65,18.42,0,111.1,13.12,23.60,43.0
"2010-09-28 00:08:30",199038,2.664,74.82,3.048,0.159,20.36,109.1712,22.77,23.67,18.38,0,111.2,13.12,23.60,36.8
"2010-09-28 00:09:00",199039,2.336,75.55,1.523,0.139,20.32,109.1712,22.77,23.67,18.4,0,111.2,13.12,23.60,37.6
"2010-09-28 00:09:30",199040,2.517,75.04,2.663,0.158,20.37,109.1698,22.76,23.65,18.39,0,111.1,13.12,23.59,37.0
"2010-09-28 00:10:00",199041,2.473,73.95,2.13,0.151,20.36,109.1684,22.76,23.68,18.36,0,111.1,13.12,23.59,35.9
"2010-09-28 00:10:30",199042,2.462,61.97,3.793,0.088,20.27,109.1671,22.76,23.67,18.53,0,111.1,13.12,23.59,24.0
"2010-09-28 00:11:00",199043,2.54,59.25,1.817,0.068,20.31,109.165,22.75,23.65,18.55,0,111.2,13.12,23.58,21.2
"2010-09-28 00:11:30",199044,2.366,64.48,2.602,0.143,20.28,109.1669,22.75,23.65,18.57,0,111.2,13.12,23.59,26.5
"2010-09-28 00:12:00",199045,2.145,60.57,4.454,0.154,20.3,109.1669,22.75,23.64,18.55,0,111.2,13.13,23.59,22.6
"2010-09-28 00:12:30",199046,2.062,67.65,6.017,0.097,20.36,109.1657,22.75,23.64,18.61,0,111.2,13.13,23.58,29.7
"2010-09-28 00:13:00",199047,1.592,78.29,4.045,0.122,20.37,109.1674,22.76,23.64,18.51,0,111.2,13.13,23.59,40.3
"2010-09-28 00:13:30",199048,1.96,63.02,3.654,0.128,20.35,109.1663,22.75,23.64,18.67,0,111.2,13.13,23.58,25.0
"2010-09-28 00:14:00",199049,2.121,55.35,2.218,0.057,20.3,109.1519,22.72,23.63,18.83,0,111.2,13.13,23.55,17.3
"2010-09-28 00:14:30",199050,2.094,55.99,1.299,0.074,20.31,109.1522,22.72,23.61,18.8,0,111.1,13.13,23.55,18.0
"2010-09-28 00:15:00",199051,2.023,57.02,2.108,0.067,20.33,109.1525,22.72,23.61,18.74,0,111.1,13.13,23.55,19.0
"2010-09-28 00:15:30",199052,1.863,59.41,4,0.065,20.39,109.1514,22.71,23.6,18.71,0,111.1,13.13,23.55,21.4
"2010-09-28 00:16:00",199053,1.92,60.3,3.41,0.051,20.4,109.1509,22.71,23.62,18.7,0,111.1,13.13,23.54,22.3
"2010-09-28 00:16:30",199054,1.842,57.06,5.62,0.067,20.38,109.154,22.72,23.6,18.7,0,111.1,13.13,23.55,19.1
"2010-09-28 00:17:00",199055,1.879,50.48,2.032,0.144,20.33,109.1552,22.72,23.59,18.73,0,111.1,13.13,23.56,12.5
"2010-09-28 00:17:30",199056,1.911,40.25,2.413,0.158,20.33,109.1552,22.72,23.6,18.82,0,111.1,13.13,23.56,2.2
"2010-09-28 00:18:00",199057,1.805,41.46,4.051,0.153,20.32,109.1568,22.73,23.6,18.84,0,111.1,13.13,23.56,3.5
"2010-09-28 00:18:30",199058,1.503,46.21,4.524,0.167,20.32,109.1577,22.73,23.6,18.75,0,111.1,13.13,23.56,8.2
"2010-09-28 00:19:00",199059,1.085,43.94,10.86,0.254,20.41,109.1577,22.73,23.59,18.77,0,111.1,13.13,23.56,5.9
"2010-09-28 00:19:30",199060,1.416,51.84,5.177,0.148,20.38,109.158,22.73,23.59,18.73,0,111.1,13.13,23.56,13.8
"2010-09-28 00:20:00",199061,1.551,48.88,2.524,0.195,20.4,109.1586,22.73,23.58,18.69,0,111.1,13.13,23.56,10.9
"2010-09-28 00:20:30",199062,1.336,52.82,1.969,0.081,20.43,109.158,22.73,23.59,18.78,0,111.1,13.13,23.56,14.8
"2010-09-28 00:21:00",199063,1.391,56.55,4.466,0.165,20.43,109.1589,22.73,23.59,18.78,0,111.1,13.13,23.57,18.5
"2010-09-28 00:21:30",199064,1.533,54.95,3.098,0.074,20.39,109.1586,22.73,23.58,18.73,0,111.1,13.13,23.56,17.0
"2010-09-28 00:22:00",199065,1.454,60.54,3.657,0.183,20.48,109.1583,22.73,23.6,18.76,0,111.1,13.13,23.56,22.5
"2010-09-28 00:22:30",199066,1.508,59.26,4.814,0.128,20.46,109.1598,22.74,23.59,18.75,0,111.1,13.13,23.57,21.3
"2010-09-28 00:23:00",199067,1.367,60.43,3.922,0.125,20.5,109.1601,22.74,23.59,18.73,0,111.1,13.13,23.57,22.4
"2010-09-28 00:23:30",199068,1.569,70.26,5.944,0.198,20.5,109.1617,22.74,23.58,18.67,0,111.1,13.13,23.57,32.3
"2010-09-28 00:24:00",199069,1.622,65.55,2.714,0.103,20.5,109.1647,22.75,23.59,18.6,0,111.1,13.13,23.58,27.6
"2010-09-28 00:24:30",199070,1.612,77.73,4.243,0.119,20.51,109.1657,22.75,23.59,18.65,0,111.1,13.13,23.58,39.7
"2010-09-28 00:25:00",199071,1.506,79.2,4.384,0.115,20.53,109.1663,22.75,23.58,18.64,0,111.1,13.13,23.58,41.2
"2010-09-28 00:25:30",199072,1.73,85.6,2.095,0.152,20.52,109.1672,22.76,23.58,18.72,0,111.1,13.13,23.59,47.6
"2010-09-28 00:26:00",199073,1.726,84.8,4.278,0.087,20.54,109.1669,22.75,23.59,18.77,0,111.1,13.13,23.59,46.8
"2010-09-28 00:26:30",199074,1.741,76.1,8.98,0.157,20.54,109.1675,22.76,23.59,18.79,0,111.1,13.13,23.59,38.1
"2010-09-28 00:27:00",199075,2.092,70.14,3.282,0.095,20.54,109.1675,22.76,23.59,18.74,0,111.1,13.13,23.59,32.1
"2010-09-28 00:27:30",199076,2.487,64.7,2.438,0.205,20.55,109.1669,22.75,23.59,18.75,0,111.1,13.13,23.59,26.7
"2010-09-28 00:28:00",199077,2.414,64.83,1.767,0.114,20.52,109.1636,22.75,23.58,18.74,0,111.1,13.13,23.58,26.8
"2010-09-28 00:28:30",199078,2.328,62.36,1.485,0.142,20.53,109.154,22.72,23.57,18.8,0,111.1,13.13,23.55,24.4
"2010-09-28 00:29:00",199079,2.494,55.06,2.918,0.11,20.52,109.1428,22.69,23.58,18.85,0,111.1,13.13,23.52,17.1
"2010-09-28 00:29:30",199080,2.19,63.5,3.582,0.263,20.59,109.1403,22.69,23.57,18.85,0,111.1,13.13,23.52,25.5
"2010-09-28 00:30:00",199081,1.738,67.34,1.76,0.115,20.66,109.1344,22.67,23.57,18.85,0,111.1,13.13,23.50,29.3
"2010-09-28 00:30:30",199082,1.262,72.44,3.048,0.096,20.69,109.1346,22.67,23.57,18.87,0,111.1,13.14,23.50,34.4
"2010-09-28 00:31:00",199083,1.287,73.99,3.025,0.081,20.68,109.1344,22.67,23.57,18.87,0,111.1,13.14,23.50,36.0
"2010-09-28 00:31:30",199084,1.453,71.16,2.058,0.097,20.7,109.1338,22.67,23.56,18.87,0,111.1,13.14,23.50,33.2
"2010-09-28 00:32:00",199085,1.427,75.32,2.589,0.112,20.68,109.1338,22.67,23.56,18.93,0,111.1,13.14,23.50,37.3
"2010-09-28 00:32:30",199086,1.642,69.37,3.973,0.112,20.72,109.1338,22.67,23.56,18.91,0,111.1,13.14,23.50,31.4
"2010-09-28 00:33:00",199087,1.441,70.86,5.769,0.105,20.72,109.1338,22.67,23.56,18.9,0,111.1,13.14,23.50,32.9
"2010-09-28 00:33:30",199088,1.593,55.56,5.819,0.204,20.67,109.1338,22.67,23.55,18.92,0,111.1,13.14,23.50,17.6
"2010-09-28 00:34:00",199089,1.558,69.72,4.231,0.193,20.73,109.1338,22.67,23.56,18.93,0,111.1,13.14,23.50,31.7
"2010-09-28 00:34:30",199090,1.611,68.7,1.575,0.088,20.75,109.1338,22.67,23.54,18.92,0,111.1,13.14,23.50,30.7
"2010-09-28 00:35:00",199091,1.819,70.56,1.471,0.075,20.75,109.1327,22.67,23.54,18.99,0,111.1,13.14,23.50,32.6
"2010-09-28 00:35:30",199092,1.784,70.89,2.324,0.087,20.77,109.1287,22.66,23.54,19.04,0,111.1,13.14,23.49,32.9
"2010-09-28 00:36:00",199093,1.751,73.73,1.887,0.061,20.8,109.1257,22.65,23.55,19.05,0,111.1,13.14,23.48,35.7
"2010-09-28 00:36:30",199094,1.7,74.94,1.773,0.038,20.85,109.1229,22.64,23.55,19.07,0,111.1,13.14,23.47,36.9
"2010-09-28 00:37:00",199095,1.939,70.33,1.873,0.112,20.85,109.1208,22.64,23.55,19.09,0,111.1,13.14,23.47,32.3
"2010-09-28 00:37:30",199096,2.009,65.74,2.326,0.132,20.9,109.1222,22.64,23.54,19.09,0,111.1,13.14,23.47,27.7
"2010-09-28 00:38:00",199097,2.373,73.02,4.145,0.151,20.9,109.1207,22.64,23.54,19.07,0,111.1,13.14,23.47,35.0
"2010-09-28 00:38:30",199098,2.525,73.87,2.612,0.104,20.92,109.1241,22.64,23.53,19.1,0,111.1,13.14,23.48,35.9
"2010-09-28 00:39:00",199099,2.287,77.18,2.331,0.105,20.93,109.1282,22.66,23.54,19.12,0,111.1,13.14,23.49,39.2
"2010-09-28 00:39:30",199100,1.974,74.82,4.059,0.116,20.95,109.1318,22.66,23.52,19.13,0,111.1,13.14,23.50,36.8
"2010-09-28 00:40:00",199101,2.265,68.81,2.028,0.141,20.99,109.1293,22.66,23.53,19.11,0,111.1,13.14,23.49,30.8
"2010-09-28 00:40:30",199102,2.358,63.34,1.503,0.078,20.91,109.1277,22.65,23.52,19.1,0,111.1,13.14,23.48,25.3
"2010-09-28 00:41:00",199103,2.274,62.18,2.595,0.056,20.92,109.1277,22.65,23.51,19.11,0,111.1,13.14,23.48,24.2
"2010-09-28 00:41:30",199104,2.065,66.33,1.641,0.076,21,109.1277,22.65,23.52,19.21,0,111.1,13.14,23.48,28.3
"2010-09-28 00:42:00",199105,2.201,67.33,1.991,0.153,21.01,109.1301,22.66,23.5,19.25,0,111.1,13.14,23.49,29.3
"2010-09-28 00:42:30",199106,2.17,69.51,5.659,0.147,20.93,109.1321,22.67,23.5,19.28,0,111.1,13.14,23.50,31.5
"2010-09-28 00:43:00",199107,2.037,63.59,1.972,0.074,20.97,109.1238,22.64,23.49,19.27,0,111.1,13.14,23.47,25.6
"2010-09-28 00:43:30",199108,1.951,59.46,1.552,0.065,20.91,109.1115,22.61,23.48,19.22,0,111,13.14,23.44,21.5
"2010-09-28 00:44:00",199109,1.685,66.89,3.127,0.071,21,109.1085,22.6,23.48,19.26,0,111,13.14,23.44,28.9
"2010-09-28 00:44:30",199110,1.669,63.31,2.667,0.067,21,109.1037,22.59,23.47,19.25,0,111,13.14,23.42,25.3
"2010-09-28 00:45:00",199111,1.785,63.18,3.301,0.136,20.98,109.1032,22.59,23.46,19.24,0,111,13.14,23.42,25.2
"2010-09-28 00:45:30",199112,1.972,58.68,3.028,0.062,20.91,109.1032,22.59,23.47,19.29,0,111,13.14,23.42,20.7
"2010-09-28 00:46:00",199113,1.853,62.46,1.953,0.059,21.05,109.1032,22.59,23.45,19.35,0,111,13.14,23.42,24.5
"2010-09-28 00:46:30",199114,1.962,62.45,1.693,0.074,20.98,109.1032,22.59,23.46,19.38,0,111,13.14,23.42,24.5
"2010-09-28 00:47:00",199115,2.093,57.03,1.333,0.105,20.88,109.1029,22.59,23.45,19.47,0,111,13.15,23.42,19.0
"2010-09-28 00:47:30",199116,2.071,55.73,2.206,0.058,20.93,109.1004,22.58,23.45,19.5,0,111,13.15,23.41,17.7
"2010-09-28 00:48:00",199117,2.117,56.5,0.998,0.041,20.88,109.0995,22.58,23.44,19.48,0,111,13.15,23.41,18.5
"2010-09-28 00:48:30",199118,2.296,55.18,1.292,0.103,20.97,109.0943,22.57,23.44,19.52,0,111,13.15,23.40,17.2
"2010-09-28 00:49:00",199119,2.298,56.34,1.21,0.048,20.95,109.0861,22.55,23.43,19.48,0,111,13.15,23.38,18.3
"2010-09-28 00:49:30",199120,2.308,55.98,1.414,0.1,20.96,109.0772,22.52,23.41,19.51,0,111,13.15,23.35,18.0
"2010-09-28 00:50:00",199121,2.3,56.73,1.856,0.062,20.95,109.0733,22.51,23.42,19.51,0,111,13.15,23.34,18.7
"2010-09-28 00:50:30",199122,2.218,59.6,2.426,0.037,20.93,109.0731,22.51,23.41,19.52,0,111,13.15,23.34,21.6
"2010-09-28 00:51:00",199123,2.212,65.31,1.396,0.034,20.99,109.075,22.52,23.41,19.54,0,111,13.15,23.35,27.3
"2010-09-28 00:51:30",199124,2.229,63.17,0.904,0.014,20.94,109.0802,22.53,23.4,19.61,0,111,13.15,23.36,25.2
"2010-09-28 00:52:00",199125,2.166,63.61,1.23,0.093,20.97,109.0835,22.54,23.41,19.62,0,111,13.15,23.37,25.6
"2010-09-28 00:52:30",199126,2.011,64.06,1.562,0.045,20.98,109.0882,22.55,23.41,19.59,0,111,13.16,23.38,26.1
"2010-09-28 00:53:00",199127,2.065,63.91,1.654,0.055,20.97,109.0897,22.56,23.4,19.6,0,111,13.16,23.39,25.9
"2010-09-28 00:53:30",199128,2.029,63.23,1.584,0.062,20.97,109.0918,22.56,23.4,19.6,0,111,13.16,23.39,25.2
"2010-09-28 00:54:00",199129,1.942,67.79,1.337,0.062,20.98,109.0964,22.57,23.4,19.6,0,111,13.16,23.40,29.8
"2010-09-28 00:54:30",199130,2.066,68.92,1.637,0.073,20.95,109.0968,22.57,23.4,19.64,0,111,13.16,23.41,30.9
"2010-09-28 00:55:00",199131,2.21,66.42,1.906,0.11,20.94,109.094,22.57,23.4,19.64,0,111,13.16,23.40,28.4
"2010-09-28 00:55:30",199132,2.314,66.42,3.522,0.054,20.92,109.0778,22.53,23.39,19.65,0,111,13.16,23.36,28.4
"2010-09-28 00:56:00",199133,2.316,71.04,1.645,0.115,20.98,109.0755,22.52,23.38,19.67,0,111,13.16,23.35,33.0
"2010-09-28 00:56:30",199134,2.287,72.55,1.492,0.039,20.98,109.0744,22.52,23.38,19.64,0,111,13.16,23.35,34.6
"2010-09-28 00:57:00",199135,2.259,72.18,0.878,0.052,20.94,109.0742,22.52,23.37,19.58,0,111,13.16,23.35,34.2
"2010-09-28 00:57:30",199136,2.286,71.41,2.385,0.031,20.96,109.0725,22.51,23.38,19.61,0,111,13.16,23.34,33.4
"2010-09-28 00:58:00",199137,2.243,70.27,1.519,0.049,20.97,109.0725,22.51,23.37,19.62,0,110.9,13.16,23.34,32.3
"2010-09-28 00:58:30",199138,2.207,76.18,3.121,0.073,20.98,109.0725,22.51,23.38,19.63,0,110.9,13.16,23.34,38.2
"2010-09-28 00:59:00",199139,2.3,78.5,0.938,0.088,21,109.0725,22.51,23.36,19.6,0,110.9,13.16,23.34,40.5
"2010-09-28 00:59:30",199140,2.411,80.2,1.021,0.042,20.97,109.0725,22.51,23.37,19.67,0,110.9,13.15,23.34,42.2
"2010-09-28 01:00:00",199141,2.445,77.79,1.325,0.057,20.99,109.0722,22.51,23.38,19.71,0,110.9,13.15,23.34,39.8
"2010-09-28 01:00:30",199142,2.707,81.6,1.343,0.118,20.91,109.0689,22.5,23.36,19.52,0,110.9,13.16,23.33,43.6
"2010-09-28 01:01:00",199143,2.919,82.6,0.942,0.039,20.87,109.0666,22.5,23.36,19.46,0,110.9,13.16,23.33,44.6
"2010-09-28 01:01:30",199144,2.87,85.6,0.89,0.047,20.9,109.0573,22.47,23.35,19.5,0,110.9,13.16,23.30,47.6
"2010-09-28 01:02:00",199145,2.931,90.5,1.841,0.167,20.89,109.043,22.44,23.33,19.52,0,110.9,13.16,23.27,52.5
"2010-09-28 01:02:30",199146,3.316,98.3,3.44,0.052,20.8,109.0388,22.43,23.33,19.83,0,110.9,13.16,23.26,60.3
"2010-09-28 01:03:00",199147,3.044,111.2,3.83,0.152,20.67,109.0216,22.38,23.3,20.14,0,110.9,13.16,23.21,73.2
"2010-09-28 01:03:30",199148,3.293,122.7,3.587,0.248,20.74,109.0054,22.34,23.28,20.09,0,110.9,13.17,23.17,84.7
"2010-09-28 01:04:00",199149,3.41,126,1.146,0.143,20.66,108.9855,22.29,23.25,20.13,0,110.9,13.17,23.12,88.0
"2010-09-28 01:04:30",199150,3.387,126.1,0.923,0.067,20.68,108.9729,22.26,23.22,20.16,0,110.9,13.17,23.09,88.1
"2010-09-28 01:05:00",199151,3.223,123.8,2.007,0.077,20.65,108.9665,22.24,23.2,20.18,0,110.9,13.17,23.07,85.8
"2010-09-28 01:05:30",199152,3.269,122.5,0.766,0.083,20.71,108.9507,22.2,23.14,20.19,0,110.9,13.17,23.03,84.5
"2010-09-28 01:06:00",199153,3.301,121.7,0.617,0.068,20.74,108.9499,22.2,23.13,20.22,0,110.9,13.17,23.03,83.7
"2010-09-28 01:06:30",199154,3.423,121.8,0.574,0.044,20.69,108.9509,22.2,23.12,20.26,0,110.9,13.17,23.03,83.8
"2010-09-28 01:07:00",199155,3.466,123.5,1.002,0.04,20.65,108.9405,22.17,23.1,20.3,0,110.9,13.17,23.00,85.5
"2010-09-28 01:07:30",199156,3.509,123.4,0.654,0.033,20.64,108.9344,22.16,23.07,20.33,0,110.9,13.17,22.99,85.4
"2010-09-28 01:08:00",199157,3.417,123.2,0.785,0.047,20.67,108.9296,22.15,23.05,20.31,0,110.9,13.17,22.97,85.2
"2010-09-28 01:08:30",199158,3.474,121.2,1.163,0.072,20.64,108.9296,22.15,23.06,20.22,0,110.9,13.17,22.97,83.2
"2010-09-28 01:09:00",199159,3.505,124.6,0.58,0.053,20.57,108.9283,22.14,23.03,20.21,0,110.9,13.17,22.97,86.6
"2010-09-28 01:09:30",199160,3.671,124.5,1.752,0.119,20.58,108.9109,22.1,23.02,20.25,0,110.9,13.17,22.93,86.5
"2010-09-28 01:10:00",199161,3.716,124.3,2.681,0.169,20.57,108.9008,22.07,22.99,20.53,0,110.9,13.18,22.90,86.3
"2010-09-28 01:10:30",199162,3.796,129,1.523,0.074,20.64,108.9001,22.07,22.97,20.29,0,110.9,13.18,22.90,91.0
"2010-09-28 01:11:00",199163,3.844,131.6,0.602,0.095,20.7,108.9029,22.08,22.96,20.26,0,110.9,13.18,22.91,93.6
"2010-09-28 01:11:30",199164,3.96,132.4,0.825,0.059,20.71,108.9039,22.08,22.96,20.26,0,110.9,13.18,22.91,94.4
"2010-09-28 01:12:00",199165,3.928,138.1,2.474,0.091,20.6,108.9048,22.08,22.95,20.32,0,110.9,13.18,22.91,100.1
"2010-09-28 01:12:30",199166,3.784,140.3,3.602,0.145,20.65,108.9069,22.09,22.95,20.36,0,110.9,13.18,22.92,102.3
"2010-09-28 01:13:00",199167,3.522,135.8,2.725,0.18,20.83,108.908,22.09,22.95,20.27,0,110.9,13.18,22.92,97.8
"2010-09-28 01:13:30",199168,3.139,138.4,2.646,0.178,20.77,108.9162,22.11,22.96,20.23,0,110.9,13.18,22.94,100.4
"2010-09-28 01:14:00",199169,3.008,140,1.347,0.076,20.6,108.9356,22.16,22.99,20.27,0,110.9,13.18,22.99,102.0
"2010-09-28 01:14:30",199170,3.203,144.5,1.695,0.07,20.74,108.9378,22.17,23,20.33,0,110.9,13.18,23.00,106.5
"2010-09-28 01:15:00",199171,3.431,146.2,1.679,0.117,20.6,108.9257,22.14,23,20.28,0,110.9,13.18,22.96,108.2
"2010-09-28 01:15:30",199172,3.399,142.9,1.242,0.071,20.78,108.9176,22.11,23,20.29,0,110.9,13.17,22.94,104.9
"2010-09-28 01:16:00",199173,3.359,141.6,7.805,0.2,20.82,108.9159,22.11,23,20.29,0,110.9,13.17,22.94,103.6
"2010-09-28 01:16:30",199174,2.664,145.5,7.37,0.17,20.9,108.9291,22.14,23,20.17,0,110.9,13.17,22.97,107.5
"2010-09-28 01:17:00",199175,3.079,137.9,4.362,0.173,20.69,108.9392,22.17,23,20.23,0,110.9,13.17,23.00,99.9
"2010-09-28 01:17:30",199176,2.98,131.9,1.052,0.077,20.76,108.9384,22.17,23.02,20.17,0,110.9,13.17,23.00,93.9
"2010-09-28 01:18:00",199177,2.847,133.3,1.357,0.084,20.75,108.9361,22.16,23.03,20.19,0,110.9,13.17,22.99,95.3
"2010-09-28 01:18:30",199178,2.744,131.4,2.131,0.12,20.68,108.9294,22.14,23.02,20.17,0,110.9,13.17,22.97,93.4
"2010-09-28 01:19:00",199179,2.708,131.4,2.843,0.118,20.68,108.9255,22.13,23.02,20.15,0,110.9,13.17,22.96,93.4
"2010-09-28 01:19:30",199180,2.991,136.4,1.673,0.128,20.72,108.9179,22.12,23.01,20.17,0,110.9,13.17,22.94,98.4
"2010-09-28 01:20:00",199181,3.289,139.6,1.502,0.066,20.62,108.9141,22.11,23.01,20.16,0,110.9,13.18,22.93,101.6
"2010-09-28 01:20:30",199182,3.123,136.1,1.734,0.102,20.68,108.9093,22.09,23.02,20.16,0,110.9,13.18,22.92,98.1
"2010-09-28 01:21:00",199183,3.068,140.5,2.827,0.079,20.59,108.9112,22.1,23,20.21,0,110.9,13.19,22.93,102.5
"2010-09-28 01:21:30",199184,2.897,142.5,2.222,0.19,20.71,108.9112,22.1,22.99,20.2,0,110.9,13.19,22.93,104.5
"2010-09-28 01:22:00",199185,2.843,138.7,2.411,0.063,20.78,108.9115,22.1,23,20.21,0,110.9,13.19,22.93,100.7
"2010-09-28 01:22:30",199186,2.776,140.1,1.931,0.082,20.84,108.909,22.09,22.98,20.22,0,110.9,13.19,22.92,102.1
"2010-09-28 01:23:00",199187,2.981,143.7,0.75,0.138,20.63,108.9145,22.11,23,20.21,0,110.9,13.19,22.94,105.7
"2010-09-28 01:23:30",199188,3.249,146.1,2.459,0.109,20.7,108.9139,22.11,22.98,20.23,0,110.9,13.19,22.93,108.1
"2010-09-28 01:24:00",199189,3.266,147.5,1.168,0.085,20.74,108.9164,22.11,22.98,20.33,0,110.9,13.19,22.94,109.5
"2010-09-28 01:24:30",199190,3.413,146.6,1.028,0.059,20.67,108.9117,22.1,22.97,20.43,0,110.9,13.19,22.93,108.6
"2010-09-28 01:25:00",199191,3.553,145.4,0.502,0.059,20.54,108.8946,22.06,22.98,20.44,0,110.9,13.19,22.88,107.4
"2010-09-28 01:25:30",199192,3.591,147.5,1.235,0.056,20.49,108.8915,22.05,22.95,20.44,0,110.9,13.19,22.88,109.5
"2010-09-28 01:26:00",199193,3.474,147.2,0.775,0.02,20.59,108.893,22.05,22.95,20.47,0,110.9,13.19,22.88,109.2
"2010-09-28 01:26:30",199194,3.515,147,1.006,0.041,20.53,108.8992,22.07,22.94,20.44,0,110.9,13.19,22.90,109.0
"2010-09-28 01:27:00",199195,3.553,147.9,0.814,0.045,20.47,108.901,22.07,22.92,20.42,0,110.9,13.19,22.90,109.9
"2010-09-28 01:27:30",199196,3.748,146.4,0.473,0.074,20.57,108.9019,22.07,22.92,20.43,0,110.9,13.19,22.90,108.4
"2010-09-28 01:28:00",199197,3.671,146.8,0.733,0.059,20.49,108.9039,22.08,22.92,20.43,0,110.9,13.19,22.91,108.8
"2010-09-28 01:28:30",199198,3.584,146.6,1.26,0.089,20.48,108.8941,22.05,22.91,20.43,0,110.9,13.19,22.88,108.6
"2010-09-28 01:29:00",199199,3.676,147.1,0.847,0.052,20.47,108.8834,22.03,22.9,20.43,0,110.9,13.19,22.86,109.1
"2010-09-28 01:29:30",199200,3.738,148.5,0.96,0.087,20.6,108.8827,22.03,22.89,20.44,0,110.9,13.19,22.85,110.5
"2010-09-28 01:30:00",199201,3.851,147.9,0.53,0.083,20.66,108.8826,22.02,22.89,20.47,0,110.9,13.19,22.85,109.9
"2010-09-28 01:30:30",199202,3.877,148.5,0.528,0.037,20.74,108.8781,22.01,22.9,20.47,0,110.9,13.19,22.84,110.5
"2010-09-28 01:31:00",199203,3.868,148.3,0.598,0.044,20.73,108.877,22.01,22.88,20.46,0,110.9,13.19,22.84,110.3
"2010-09-28 01:31:30",199204,3.838,147.5,0.711,0.046,20.73,108.8761,22.01,22.89,20.46,0,110.9,13.19,22.84,109.5
"2010-09-28 01:32:00",199205,3.759,147.9,0.555,0.046,20.63,108.8761,22.01,22.89,20.45,0,110.9,13.19,22.84,109.9
"2010-09-28 01:32:30",199206,3.652,149,1.48,0.122,20.62,108.8761,22.01,22.88,20.44,0,110.9,13.19,22.84,111.0
"2010-09-28 01:33:00",199207,3.658,149.5,0.734,0.078,20.63,108.8767,22.01,22.89,20.43,0,110.9,13.19,22.84,111.5
"2010-09-28 01:33:30",199208,3.621,149.3,0.945,0.042,20.58,108.877,22.01,22.89,20.4,0,110.9,13.19,22.84,111.3
"2010-09-28 01:34:00",199209,3.569,149.2,1.012,0.056,20.55,108.877,22.01,22.89,20.39,0,110.9,13.19,22.84,111.2
"2010-09-28 01:34:30",199210,3.544,150.6,0.494,0.053,20.56,108.8775,22.01,22.9,20.39,0,110.9,13.19,22.84,112.6
"2010-09-28 01:35:00",199211,3.438,150.8,0.593,0.059,20.54,108.8795,22.02,22.89,20.38,0,110.9,13.19,22.85,112.8
"2010-09-28 01:35:30",199212,3.422,151.5,0.664,0.047,20.51,108.8823,22.02,22.9,20.37,0,110.9,13.19,22.85,113.5
"2010-09-28 01:36:00",199213,3.345,150.6,0.494,0.031,20.63,108.8851,22.03,22.89,20.36,0,110.9,13.19,22.86,112.6
"2010-09-28 01:36:30",199214,3.398,150.8,0.57,0.018,20.54,108.8868,22.04,22.9,20.34,0,110.9,13.19,22.86,112.8
"2010-09-28 01:37:00",199215,3.365,152,1.001,0.037,20.53,108.8877,22.04,22.91,20.33,0,110.8,13.19,22.87,114.0
"2010-09-28 01:37:30",199216,3.246,151.4,0.612,0.069,20.73,108.8882,22.04,22.91,20.31,0,110.9,13.19,22.87,113.4
"2010-09-28 01:38:00",199217,3.255,152.7,1.275,0.054,20.62,108.8894,22.04,22.93,20.3,0,110.8,13.2,22.87,114.7
"2010-09-28 01:38:30",199218,3.174,152.6,0.713,0.038,20.77,108.8894,22.04,22.92,20.31,0,110.8,13.2,22.87,114.6
"2010-09-28 01:39:00",199219,3.127,152.7,0.877,0.049,20.8,108.8896,22.04,22.91,20.31,0,110.8,13.2,22.87,114.7
"2010-09-28 01:39:30",199220,3.057,153.2,0.951,0.048,20.84,108.8882,22.04,22.92,20.29,0,110.8,13.2,22.87,115.2
"2010-09-28 01:40:00",199221,3.005,153,1.614,0.031,20.87,108.8899,22.04,22.92,20.28,0,110.8,13.2,22.87,115.0
"2010-09-28 01:40:30",199222,2.983,153.6,1.156,0.035,20.8,108.8908,22.05,22.9,20.27,0,110.8,13.2,22.87,115.6
"2010-09-28 01:41:00",199223,2.906,153.8,0.764,0.048,20.73,108.893,22.05,22.93,20.25,0,110.8,13.2,22.88,115.8
"2010-09-28 01:41:30",199224,2.876,154.4,0.563,0.088,20.74,108.8984,22.07,22.92,20.26,0,110.8,13.2,22.89,116.4
"2010-09-28 01:42:00",199225,2.718,154,0.505,0.039,20.59,108.9045,22.08,22.93,20.24,0,110.8,13.2,22.91,116.0
"2010-09-28 01:42:30",199226,2.744,154.4,0.613,0.048,20.62,108.9065,22.09,22.92,20.22,0,110.8,13.2,22.92,116.4
"2010-09-28 01:43:00",199227,2.687,154.6,0.87,0.029,20.56,108.9085,22.09,22.95,20.22,0,110.8,13.2,22.92,116.6
"2010-09-28 01:43:30",199228,2.48,152.9,0.881,0.041,20.89,108.9099,22.09,22.94,20.17,0,110.8,13.2,22.92,114.9
"2010-09-28 01:44:00",199229,2.513,155.6,0.882,0.035,20.73,108.9102,22.1,22.94,20.19,0,110.8,13.2,22.92,117.6
"2010-09-28 01:44:30",199230,2.484,155.6,1.689,0.014,20.8,108.9105,22.1,22.95,20.2,0,110.8,13.2,22.93,117.6
"2010-09-28 01:45:00",199231,2.44,158.9,0.823,0.027,20.79,108.9105,22.1,22.95,20.2,0,110.8,13.2,22.93,120.9
"2010-09-28 01:45:30",199232,2.423,160.5,1.124,0.042,20.81,108.9123,22.1,22.97,20.2,0,110.8,13.2,22.93,122.5
"2010-09-28 01:46:00",199233,2.403,160.6,0.572,0.063,20.78,108.9139,22.1,22.96,20.2,0,110.8,13.2,22.93,122.6
"2010-09-28 01:46:30",199234,2.452,161,0.701,0.027,20.69,108.9169,22.11,22.96,20.2,0,110.8,13.2,22.94,123.0
"2010-09-28 01:47:00",199235,2.482,161.1,0.765,0.017,20.55,108.9188,22.12,22.97,20.17,0,110.8,13.2,22.95,123.1
"2010-09-28 01:47:30",199236,2.433,161.8,0.883,0.055,20.76,108.9234,22.13,22.98,20.17,0,110.8,13.2,22.96,123.8
"2010-09-28 01:48:00",199237,2.366,163.2,0.621,0.049,20.9,108.9286,22.14,22.99,20.16,0,110.8,13.2,22.97,125.2
"2010-09-28 01:48:30",199238,2.355,163.3,1.394,0.07,20.9,108.9301,22.15,22.97,20.15,0,110.8,13.2,22.98,125.3